Wetterdaten: Freitag, 25.09.2015
Datum Zeit Temp. A. Feuchte A. Luftdruck Regen Wind Richtung Richtung Sonnenschein ET UV Solar Taupunkt Windchill Windben Empfang
25.09.2015 00:03 11,6 C 86 % 1021,5 hPa 0,0 l/m 0,4 km/h (0 Bft) S 177 0 min 0,000 mm 0,0 UV-I 0 W/m 9,3 C 11,6 C 4,0 km/h (1 Bft) 0,00 %
25.09.2015 00:08 11,6 C 86 % 1021,6 hPa 0,0 l/m 0,0 km/h (0 Bft) SO 128 0 min 0,000 mm 0,0 UV-I 0 W/m 9,3 C 11,6 C 0,0 km/h (0 Bft) 0,00 %
25.09.2015 00:13 11,6 C 86 % 1021,6 hPa 0,0 l/m 1,4 km/h (1 Bft) S-SW 197 0 min 0,000 mm 0,0 UV-I 0 W/m 9,3 C 11,6 C 4,0 km/h (1 Bft) 0,00 %
25.09.2015 00:18 11,6 C 86 % 1021,4 hPa 0,0 l/m 0,0 km/h (0 Bft) S 176 0 min 0,000 mm 0,0 UV-I 0 W/m 9,3 C 11,6 C 0,0 km/h (0 Bft) 0,00 %
25.09.2015 00:23 11,6 C 86 % 1021,6 hPa 0,0 l/m 0,0 km/h (0 Bft) O-NO 59 0 min 0,000 mm 0,0 UV-I 0 W/m 9,3 C 11,6 C 0,0 km/h (0 Bft) 0,00 %
25.09.2015 00:28 11,6 C 87 % 1021,4 hPa 0,0 l/m 0,0 km/h (0 Bft) W 261 0 min 0,000 mm 0,0 UV-I 0 W/m 9,5 C 11,6 C 0,0 km/h (0 Bft) 0,00 %
25.09.2015 00:33 11,5 C 87 % 1021,4 hPa 0,0 l/m 0,0 km/h (0 Bft) S-SO 153 0 min 0,000 mm 0,0 UV-I 0 W/m 9,4 C 11,5 C 0,0 km/h (0 Bft) 0,00 %
25.09.2015 00:38 11,5 C 87 % 1021,3 hPa 0,0 l/m 0,0 km/h (0 Bft) SW 216 0 min 0,000 mm 0,0 UV-I 0 W/m 9,4 C 11,5 C 0,0 km/h (0 Bft) 0,00 %
25.09.2015 00:43 11,5 C 88 % 1021,6 hPa 0,0 l/m 0,0 km/h (0 Bft) O-SO 117 0 min 0,000 mm 0,0 UV-I 0 W/m 9,6 C 11,5 C 0,0 km/h (0 Bft) 0,00 %
25.09.2015 00:48 11,5 C 88 % 1021,6 hPa 0,0 l/m 1,8 km/h (1 Bft) S 177 0 min 0,000 mm 0,0 UV-I 0 W/m 9,6 C 11,5 C 4,0 km/h (1 Bft) 0,00 %
25.09.2015 00:53 11,5 C 88 % 1021,7 hPa 0,0 l/m 0,0 km/h (0 Bft) S 189 0 min 0,000 mm 0,0 UV-I 0 W/m 9,6 C 11,5 C 0,0 km/h (0 Bft) 0,00 %
25.09.2015 00:58 11,5 C 88 % 1021,5 hPa 0,0 l/m 1,4 km/h (1 Bft) S-SW 199 0 min 0,000 mm 0,0 UV-I 0 W/m 9,6 C 11,5 C 4,0 km/h (1 Bft) 0,00 %
25.09.2015 01:03 11,5 C 88 % 1021,7 hPa 0,0 l/m 0,0 km/h (0 Bft) O 90 0 min 0,000 mm 0,0 UV-I 0 W/m 9,6 C 11,5 C 0,0 km/h (0 Bft) 0,00 %
25.09.2015 01:08 11,5 C 88 % 1021,5 hPa 0,0 l/m 0,0 km/h (0 Bft) W-SW 237 0 min 0,000 mm 0,0 UV-I 0 W/m 9,6 C 11,5 C 0,0 km/h (0 Bft) 0,00 %
25.09.2015 01:13 11,5 C 88 % 1021,4 hPa 0,0 l/m 0,4 km/h (0 Bft) S 178 0 min 0,000 mm 0,0 UV-I 0 W/m 9,6 C 11,5 C 4,0 km/h (1 Bft) 0,00 %
25.09.2015 01:18 11,5 C 88 % 1021,5 hPa 0,0 l/m 0,0 km/h (0 Bft) S 173 0 min 0,000 mm 0,0 UV-I 0 W/m 9,6 C 11,5 C 0,0 km/h (0 Bft) 0,00 %
25.09.2015 01:23 11,4 C 88 % 1021,6 hPa 0,0 l/m 0,0 km/h (0 Bft) S 181 0 min 0,000 mm 0,0 UV-I 0 W/m 9,5 C 11,4 C 0,0 km/h (0 Bft) 0,00 %
25.09.2015 01:28 11,4 C 88 % 1021,6 hPa 0,0 l/m 0,0 km/h (0 Bft) O-NO 66 0 min 0,000 mm 0,0 UV-I 0 W/m 9,5 C 11,4 C 0,0 km/h (0 Bft) 0,00 %
25.09.2015 01:33 11,4 C 88 % 1021,7 hPa 0,0 l/m 0,0 km/h (0 Bft) NO 40 0 min 0,000 mm 0,0 UV-I 0 W/m 9,5 C 11,4 C 0,0 km/h (0 Bft) 0,00 %
25.09.2015 01:38 11,4 C 88 % 1021,7 hPa 0,0 l/m 5,8 km/h (2 Bft) SW 217 0 min 0,000 mm 0,0 UV-I 0 W/m 9,5 C 11,4 C 11,9 km/h (2 Bft) 0,00 %
25.09.2015 01:43 11,4 C 88 % 1021,7 hPa 0,0 l/m 0,0 km/h (0 Bft) O 95 0 min 0,000 mm 0,0 UV-I 0 W/m 9,5 C 11,4 C 0,0 km/h (0 Bft) 0,00 %
25.09.2015 01:48 11,4 C 88 % 1021,7 hPa 0,0 l/m 0,0 km/h (0 Bft) SO 127 0 min 0,000 mm 0,0 UV-I 0 W/m 9,5 C 11,4 C 0,0 km/h (0 Bft) 0,00 %
25.09.2015 01:53 11,4 C 88 % 1021,6 hPa 0,0 l/m 2,9 km/h (1 Bft) S-SW 204 0 min 0,000 mm 0,0 UV-I 0 W/m 9,5 C 11,4 C 7,9 km/h (2 Bft) 0,00 %
25.09.2015 01:58 11,4 C 88 % 1021,8 hPa 0,0 l/m 0,0 km/h (0 Bft) S 175 0 min 0,000 mm 0,0 UV-I 0 W/m 9,5 C 11,4 C 0,0 km/h (0 Bft) 0,00 %
25.09.2015 02:03 11,4 C 87 % 1021,6 hPa 0,0 l/m 4,3 km/h (1 Bft) S-SW 193 0 min 0,000 mm 0,0 UV-I 0 W/m 9,3 C 11,4 C 7,9 km/h (2 Bft) 0,00 %
25.09.2015 02:08 11,4 C 87 % 1021,6 hPa 0,0 l/m 0,0 km/h (0 Bft) N 357 0 min 0,000 mm 0,0 UV-I 0 W/m 9,3 C 11,4 C 0,0 km/h (0 Bft) 0,00 %
25.09.2015 02:13 11,4 C 87 % 1021,6 hPa 0,0 l/m 0,7 km/h (0 Bft) S 172 0 min 0,000 mm 0,0 UV-I 0 W/m 9,3 C 11,4 C 4,0 km/h (1 Bft) 0,00 %
25.09.2015 02:18 11,4 C 87 % 1021,7 hPa 0,0 l/m 0,0 km/h (0 Bft) O 97 0 min 0,000 mm 0,0 UV-I 0 W/m 9,3 C 11,4 C 0,0 km/h (0 Bft) 0,00 %
25.09.2015 02:23 11,4 C 87 % 1021,7 hPa 0,0 l/m 4,3 km/h (1 Bft) S 191 0 min 0,000 mm 0,0 UV-I 0 W/m 9,3 C 11,4 C 7,9 km/h (2 Bft) 0,00 %
25.09.2015 02:28 11,4 C 87 % 1021,8 hPa 0,0 l/m 0,0 km/h (0 Bft) O-NO 69 0 min 0,000 mm 0,0 UV-I 0 W/m 9,3 C 11,4 C 0,0 km/h (0 Bft) 0,00 %
25.09.2015 02:33 11,4 C 87 % 1021,7 hPa 0,0 l/m 1,4 km/h (1 Bft) S-SW 202 0 min 0,000 mm 0,0 UV-I 0 W/m 9,3 C 11,4 C 4,0 km/h (1 Bft) 0,00 %
25.09.2015 02:38 11,4 C 87 % 1021,6 hPa 0,0 l/m 0,0 km/h (0 Bft) O 80 0 min 0,000 mm 0,0 UV-I 0 W/m 9,3 C 11,4 C 0,0 km/h (0 Bft) 0,00 %
25.09.2015 02:43 11,4 C 87 % 1021,5 hPa 0,0 l/m 3,2 km/h (1 Bft) S-SW 201 0 min 0,000 mm 0,0 UV-I 0 W/m 9,3 C 11,4 C 4,0 km/h (1 Bft) 0,00 %
25.09.2015 02:48 11,4 C 88 % 1021,6 hPa 0,0 l/m 0,0 km/h (0 Bft) O-SO 120 0 min 0,000 mm 0,0 UV-I 0 W/m 9,5 C 11,4 C 0,0 km/h (0 Bft) 0,00 %
25.09.2015 02:53 11,4 C 88 % 1021,6 hPa 0,0 l/m 0,7 km/h (0 Bft) S 183 0 min 0,000 mm 0,0 UV-I 0 W/m 9,5 C 11,4 C 4,0 km/h (1 Bft) 0,00 %
25.09.2015 02:58 11,4 C 88 % 1021,5 hPa 0,0 l/m 2,2 km/h (1 Bft) NW 315 0 min 0,000 mm 0,0 UV-I 0 W/m 9,5 C 11,4 C 4,0 km/h (1 Bft) 0,00 %
25.09.2015 03:03 11,4 C 88 % 1021,5 hPa 0,0 l/m 1,4 km/h (1 Bft) O-NO 73 0 min 0,000 mm 0,0 UV-I 0 W/m 9,5 C 11,4 C 4,0 km/h (1 Bft) 0,00 %
25.09.2015 03:08 11,4 C 88 % 1021,5 hPa 0,0 l/m 2,9 km/h (1 Bft) S 169 0 min 0,000 mm 0,0 UV-I 0 W/m 9,5 C 11,4 C 4,0 km/h (1 Bft) 0,00 %
25.09.2015 03:13 11,4 C 88 % 1021,4 hPa 0,0 l/m 0,4 km/h (0 Bft) S 186 0 min 0,000 mm 0,0 UV-I 0 W/m 9,5 C 11,4 C 4,0 km/h (1 Bft) 0,00 %
25.09.2015 03:18 11,4 C 88 % 1021,3 hPa 0,0 l/m 0,4 km/h (0 Bft) O-SO 113 0 min 0,000 mm 0,0 UV-I 0 W/m 9,5 C 11,4 C 4,0 km/h (1 Bft) 0,00 %
25.09.2015 03:23 11,4 C 88 % 1021,5 hPa 0,0 l/m 2,9 km/h (1 Bft) S-SW 204 0 min 0,000 mm 0,0 UV-I 0 W/m 9,5 C 11,4 C 4,0 km/h (1 Bft) 0,00 %
25.09.2015 03:28 11,4 C 88 % 1021,3 hPa 0,0 l/m 0,4 km/h (0 Bft) SO 141 0 min 0,000 mm 0,0 UV-I 0 W/m 9,5 C 11,4 C 4,0 km/h (1 Bft) 0,00 %
25.09.2015 03:33 11,4 C 88 % 1021,1 hPa 0,0 l/m 0,7 km/h (0 Bft) S 180 0 min 0,000 mm 0,0 UV-I 0 W/m 9,5 C 11,4 C 4,0 km/h (1 Bft) 0,00 %
25.09.2015 03:38 11,4 C 88 % 1021,2 hPa 0,0 l/m 2,2 km/h (1 Bft) S 172 0 min 0,000 mm 0,0 UV-I 0 W/m 9,5 C 11,4 C 4,0 km/h (1 Bft) 0,00 %
25.09.2015 03:43 11,4 C 88 % 1021,1 hPa 0,0 l/m 5,8 km/h (2 Bft) S 181 0 min 0,000 mm 0,0 UV-I 0 W/m 9,5 C 11,4 C 7,9 km/h (2 Bft) 0,00 %
25.09.2015 03:48 11,5 C 87 % 1021,0 hPa 0,0 l/m 9,0 km/h (2 Bft) SW 231 0 min 0,000 mm 0,0 UV-I 0 W/m 9,4 C 9,8 C 11,9 km/h (2 Bft) 0,00 %
25.09.2015 03:53 11,5 C 87 % 1021,0 hPa 0,0 l/m 5,8 km/h (2 Bft) W 263 0 min 0,000 mm 0,0 UV-I 0 W/m 9,4 C 11,5 C 7,9 km/h (2 Bft) 0,00 %
25.09.2015 03:58 11,6 C 87 % 1021,0 hPa 0,0 l/m 2,9 km/h (1 Bft) SW 214 0 min 0,000 mm 0,0 UV-I 0 W/m 9,5 C 11,6 C 4,0 km/h (1 Bft) 0,00 %
25.09.2015 04:03 11,6 C 87 % 1021,1 hPa 0,0 l/m 4,0 km/h (1 Bft) S-SW 192 0 min 0,000 mm 0,0 UV-I 0 W/m 9,5 C 11,6 C 4,0 km/h (1 Bft) 0,00 %
25.09.2015 04:08 11,6 C 87 % 1021,1 hPa 0,0 l/m 1,8 km/h (1 Bft) S-SW 195 0 min 0,000 mm 0,0 UV-I 0 W/m 9,5 C 11,6 C 4,0 km/h (1 Bft) 0,00 %
25.09.2015 04:13 11,6 C 87 % 1021,1 hPa 0,0 l/m 0,0 km/h (0 Bft) O-NO 59 0 min 0,000 mm 0,0 UV-I 0 W/m 9,5 C 11,6 C 0,0 km/h (0 Bft) 0,00 %
25.09.2015 04:18 11,6 C 86 % 1021,1 hPa 0,0 l/m 0,4 km/h (0 Bft) S 171 0 min 0,000 mm 0,0 UV-I 0 W/m 9,3 C 11,6 C 4,0 km/h (1 Bft) 0,00 %
25.09.2015 04:23 11,6 C 86 % 1021,1 hPa 0,0 l/m 0,0 km/h (0 Bft) SW 214 0 min 0,000 mm 0,0 UV-I 0 W/m 9,3 C 11,6 C 0,0 km/h (0 Bft) 0,00 %
25.09.2015 04:28 11,6 C 86 % 1021,2 hPa 0,0 l/m 0,4 km/h (0 Bft) W-SW 255 0 min 0,000 mm 0,0 UV-I 0 W/m 9,3 C 11,6 C 4,0 km/h (1 Bft) 0,00 %
25.09.2015 04:33 11,6 C 86 % 1021,2 hPa 0,0 l/m 1,4 km/h (1 Bft) S-SW 200 0 min 0,000 mm 0,0 UV-I 0 W/m 9,3 C 11,6 C 4,0 km/h (1 Bft) 0,00 %
25.09.2015 04:38 11,6 C 86 % 1021,1 hPa 0,0 l/m 0,7 km/h (0 Bft) O-SO 117 0 min 0,000 mm 0,0 UV-I 0 W/m 9,3 C 11,6 C 4,0 km/h (1 Bft) 0,00 %
25.09.2015 04:43 11,6 C 86 % 1021,1 hPa 0,0 l/m 1,8 km/h (1 Bft) S-SW 203 0 min 0,000 mm 0,0 UV-I 0 W/m 9,3 C 11,6 C 4,0 km/h (1 Bft) 0,00 %
25.09.2015 04:48 11,6 C 86 % 1021,0 hPa 0,0 l/m 2,2 km/h (1 Bft) W-SW 252 0 min 0,000 mm 0,0 UV-I 0 W/m 9,3 C 11,6 C 4,0 km/h (1 Bft) 0,00 %
25.09.2015 04:53 11,5 C 86 % 1021,2 hPa 0,0 l/m 0,0 km/h (0 Bft) S 180 0 min 0,000 mm 0,0 UV-I 0 W/m 9,2 C 11,5 C 0,0 km/h (0 Bft) 0,00 %
25.09.2015 04:58 11,5 C 86 % 1021,1 hPa 0,0 l/m 3,2 km/h (1 Bft) SO 138 0 min 0,000 mm 0,0 UV-I 0 W/m 9,2 C 11,5 C 4,0 km/h (1 Bft) 0,00 %
25.09.2015 05:03 11,5 C 86 % 1021,1 hPa 0,0 l/m 0,4 km/h (0 Bft) SO 131 0 min 0,000 mm 0,0 UV-I 0 W/m 9,2 C 11,5 C 4,0 km/h (1 Bft) 0,00 %
25.09.2015 05:08 11,5 C 86 % 1021,1 hPa 0,0 l/m 0,0 km/h (0 Bft) S 179 0 min 0,000 mm 0,0 UV-I 0 W/m 9,2 C 11,5 C 0,0 km/h (0 Bft) 0,00 %
25.09.2015 05:13 11,5 C 86 % 1021,1 hPa 0,0 l/m 2,2 km/h (1 Bft) SW 216 0 min 0,000 mm 0,0 UV-I 0 W/m 9,2 C 11,5 C 4,0 km/h (1 Bft) 0,00 %
25.09.2015 05:18 11,5 C 86 % 1021,1 hPa 0,0 l/m 1,8 km/h (1 Bft) S 175 0 min 0,000 mm 0,0 UV-I 0 W/m 9,2 C 11,5 C 4,0 km/h (1 Bft) 0,00 %
25.09.2015 05:23 11,5 C 86 % 1021,2 hPa 0,0 l/m 0,0 km/h (0 Bft) SW 218 0 min 0,000 mm 0,0 UV-I 0 W/m 9,2 C 11,5 C 0,0 km/h (0 Bft) 0,00 %
25.09.2015 05:28 11,5 C 86 % 1021,1 hPa 0,0 l/m 0,4 km/h (0 Bft) SO 146 0 min 0,000 mm 0,0 UV-I 0 W/m 9,2 C 11,5 C 4,0 km/h (1 Bft) 0,00 %
25.09.2015 05:33 11,5 C 86 % 1021,1 hPa 0,0 l/m 0,4 km/h (0 Bft) S-SW 211 0 min 0,000 mm 0,0 UV-I 0 W/m 9,2 C 11,5 C 4,0 km/h (1 Bft) 0,00 %
25.09.2015 05:38 11,5 C 86 % 1021,0 hPa 0,0 l/m 0,0 km/h (0 Bft) O 93 0 min 0,000 mm 0,0 UV-I 0 W/m 9,2 C 11,5 C 0,0 km/h (0 Bft) 0,00 %
25.09.2015 05:43 11,5 C 86 % 1021,2 hPa 0,0 l/m 0,0 km/h (0 Bft) O 96 0 min 0,000 mm 0,0 UV-I 0 W/m 9,2 C 11,5 C 0,0 km/h (0 Bft) 0,00 %
25.09.2015 05:48 11,5 C 86 % 1021,2 hPa 0,0 l/m 1,8 km/h (1 Bft) S 185 0 min 0,000 mm 0,0 UV-I 0 W/m 9,2 C 11,5 C 4,0 km/h (1 Bft) 0,00 %
25.09.2015 05:53 11,5 C 86 % 1021,2 hPa 0,0 l/m 0,0 km/h (0 Bft) O-NO 70 0 min 0,000 mm 0,0 UV-I 0 W/m 9,2 C 11,5 C 0,0 km/h (0 Bft) 0,00 %
25.09.2015 05:58 11,5 C 86 % 1021,1 hPa 0,0 l/m 3,2 km/h (1 Bft) S-SW 198 0 min 0,000 mm 0,0 UV-I 0 W/m 9,2 C 11,5 C 4,0 km/h (1 Bft) 0,00 %
25.09.2015 06:03 11,4 C 86 % 1021,2 hPa 0,0 l/m 0,0 km/h (0 Bft) O-SO 113 0 min 0,000 mm 0,0 UV-I 0 W/m 9,1 C 11,4 C 0,0 km/h (0 Bft) 0,00 %
25.09.2015 06:08 11,4 C 86 % 1021,3 hPa 0,0 l/m 0,0 km/h (0 Bft) O-NO 77 0 min 0,000 mm 0,0 UV-I 0 W/m 9,1 C 11,4 C 0,0 km/h (0 Bft) 0,00 %
25.09.2015 06:13 11,4 C 86 % 1021,2 hPa 0,0 l/m 0,0 km/h (0 Bft) S-SW 213 0 min 0,000 mm 0,0 UV-I 0 W/m 9,1 C 11,4 C 0,0 km/h (0 Bft) 0,00 %
25.09.2015 06:18 11,4 C 86 % 1021,2 hPa 0,0 l/m 0,0 km/h (0 Bft) O 101 0 min 0,000 mm 0,0 UV-I 0 W/m 9,1 C 11,4 C 0,0 km/h (0 Bft) 0,00 %
25.09.2015 06:23 11,4 C 86 % 1021,2 hPa 0,0 l/m 0,0 km/h (0 Bft) S-SW 195 0 min 0,000 mm 0,0 UV-I 0 W/m 9,1 C 11,4 C 0,0 km/h (0 Bft) 0,00 %
25.09.2015 06:28 11,4 C 87 % 1021,3 hPa 0,0 l/m 0,0 km/h (0 Bft) S-SW 193 0 min 0,000 mm 0,0 UV-I 0 W/m 9,3 C 11,4 C 0,0 km/h (0 Bft) 0,00 %
25.09.2015 06:33 11,4 C 87 % 1021,3 hPa 0,0 l/m 0,0 km/h (0 Bft) NO 51 0 min 0,000 mm 0,0 UV-I 0 W/m 9,3 C 11,4 C 0,0 km/h (0 Bft) 0,00 %
25.09.2015 06:38 11,3 C 87 % 1021,4 hPa 0,0 l/m 0,0 km/h (0 Bft) S 175 0 min 0,000 mm 0,0 UV-I 0 W/m 9,2 C 11,3 C 0,0 km/h (0 Bft) 0,00 %
25.09.2015 06:43 11,3 C 87 % 1021,3 hPa 0,0 l/m 0,0 km/h (0 Bft) S 175 0 min 0,000 mm 0,0 UV-I 0 W/m 9,2 C 11,3 C 0,0 km/h (0 Bft) 0,00 %
25.09.2015 06:48 11,3 C 87 % 1021,5 hPa 0,0 l/m 0,0 km/h (0 Bft) SO 146 0 min 0,000 mm 0,0 UV-I 0 W/m 9,2 C 11,3 C 0,0 km/h (0 Bft) 0,00 %
25.09.2015 06:53 11,3 C 87 % 1021,4 hPa 0,0 l/m 0,0 km/h (0 Bft) S 174 0 min 0,000 mm 0,0 UV-I 0 W/m 9,2 C 11,3 C 0,0 km/h (0 Bft) 0,00 %
25.09.2015 06:58 11,3 C 88 % 1021,4 hPa 0,0 l/m 0,0 km/h (0 Bft) S 175 0 min 0,000 mm 0,0 UV-I 0 W/m 9,4 C 11,3 C 0,0 km/h (0 Bft) 0,00 %
25.09.2015 07:03 11,3 C 88 % 1021,4 hPa 0,0 l/m 0,0 km/h (0 Bft) W-NW 287 0 min 0,000 mm 0,0 UV-I 0 W/m 9,4 C 11,3 C 0,0 km/h (0 Bft) 0,00 %
25.09.2015 07:08 11,3 C 88 % 1021,4 hPa 0,0 l/m 0,7 km/h (0 Bft) S 179 0 min 0,000 mm 0,0 UV-I 0 W/m 9,4 C 11,3 C 4,0 km/h (1 Bft) 0,00 %
25.09.2015 07:13 11,3 C 88 % 1021,2 hPa 0,0 l/m 0,0 km/h (0 Bft) S 174 0 min 0,000 mm 0,0 UV-I 0 W/m 9,4 C 11,3 C 0,0 km/h (0 Bft) 0,00 %
25.09.2015 07:18 11,3 C 87 % 1021,4 hPa 0,0 l/m 0,7 km/h (0 Bft) SW 219 0 min 0,000 mm 0,0 UV-I 0 W/m 9,2 C 11,3 C 4,0 km/h (1 Bft) 0,00 %
25.09.2015 07:23 11,3 C 87 % 1021,4 hPa 0,0 l/m 0,0 km/h (0 Bft) SW 216 0 min 0,000 mm 0,0 UV-I 3 W/m 9,2 C 11,3 C 0,0 km/h (0 Bft) 0,00 %
25.09.2015 07:28 11,3 C 86 % 1021,6 hPa 0,0 l/m 0,7 km/h (0 Bft) W-SW 252 0 min 0,000 mm 0,0 UV-I 5 W/m 9,0 C 11,3 C 4,0 km/h (1 Bft) 0,00 %
25.09.2015 07:33 11,4 C 86 % 1021,7 hPa 0,0 l/m 0,4 km/h (0 Bft) S 188 0 min 0,000 mm 0,0 UV-I 7 W/m 9,1 C 11,4 C 4,0 km/h (1 Bft) 0,00 %
25.09.2015 07:38 11,4 C 85 % 1021,9 hPa 0,0 l/m 4,0 km/h (1 Bft) W-SW 256 0 min 0,000 mm 0,0 UV-I 10 W/m 9,0 C 11,4 C 7,9 km/h (2 Bft) 0,00 %
25.09.2015 07:43 11,5 C 85 % 1021,6 hPa 0,0 l/m 0,4 km/h (0 Bft) S-SW 207 0 min 0,000 mm 0,0 UV-I 12 W/m 9,1 C 11,5 C 4,0 km/h (1 Bft) 0,00 %
25.09.2015 07:48 11,5 C 85 % 1021,7 hPa 0,0 l/m 0,4 km/h (0 Bft) O-SO 111 0 min 0,000 mm 0,0 UV-I 18 W/m 9,1 C 11,5 C 4,0 km/h (1 Bft) 0,00 %
25.09.2015 07:53 11,6 C 85 % 1021,7 hPa 0,0 l/m 0,0 km/h (0 Bft) SO 128 0 min 0,000 mm 0,0 UV-I 18 W/m 9,2 C 11,6 C 0,0 km/h (0 Bft) 0,00 %
25.09.2015 07:58 11,6 C 85 % 1021,6 hPa 0,0 l/m 0,0 km/h (0 Bft) O-NO 59 0 min 0,000 mm 0,0 UV-I 19 W/m 9,2 C 11,6 C 0,0 km/h (0 Bft) 0,00 %
25.09.2015 08:03 11,6 C 85 % 1021,7 hPa 0,0 l/m 2,9 km/h (1 Bft) SW 223 0 min 0,000 mm 0,0 UV-I 22 W/m 9,2 C 11,6 C 4,0 km/h (1 Bft) 0,00 %
25.09.2015 08:08 11,6 C 84 % 1021,7 hPa 0,0 l/m 0,4 km/h (0 Bft) S 184 0 min 0,000 mm 0,0 UV-I 22 W/m 9,0 C 11,6 C 4,0 km/h (1 Bft) 0,00 %
25.09.2015 08:13 11,6 C 84 % 1021,3 hPa 0,0 l/m 1,4 km/h (1 Bft) S 174 0 min 0,000 mm 0,0 UV-I 25 W/m 9,0 C 11,6 C 4,0 km/h (1 Bft) 0,00 %
25.09.2015 08:18 11,7 C 84 % 1021,5 hPa 0,0 l/m 0,4 km/h (0 Bft) SO 136 0 min 0,000 mm 0,0 UV-I 26 W/m 9,1 C 11,7 C 4,0 km/h (1 Bft) 0,00 %
25.09.2015 08:23 11,7 C 85 % 1021,3 hPa 0,0 l/m 1,8 km/h (1 Bft) SW 224 0 min 0,000 mm 0,0 UV-I 31 W/m 9,3 C 11,7 C 4,0 km/h (1 Bft) 0,00 %
25.09.2015 08:28 11,7 C 85 % 1021,5 hPa 0,0 l/m 1,4 km/h (1 Bft) SW 224 0 min 0,000 mm 0,0 UV-I 36 W/m 9,3 C 11,7 C 4,0 km/h (1 Bft) 0,00 %
25.09.2015 08:33 11,7 C 85 % 1021,2 hPa 0,0 l/m 0,4 km/h (0 Bft) SW 231 0 min 0,000 mm 0,0 UV-I 38 W/m 9,3 C 11,7 C 4,0 km/h (1 Bft) 0,00 %
25.09.2015 08:38 11,7 C 85 % 1021,3 hPa 0,0 l/m 0,4 km/h (0 Bft) SW 231 0 min 0,000 mm 0,0 UV-I 38 W/m 9,3 C 11,7 C 4,0 km/h (1 Bft) 0,00 %
25.09.2015 08:43 11,7 C 85 % 1021,4 hPa 0,0 l/m 0,4 km/h (0 Bft) SW 231 0 min 0,000 mm 0,0 UV-I 38 W/m 9,3 C 11,7 C 4,0 km/h (1 Bft) 0,00 %
25.09.2015 08:48 11,7 C 85 % 1021,5 hPa 0,0 l/m 0,4 km/h (0 Bft) SW 231 0 min 0,000 mm 0,0 UV-I 38 W/m 9,3 C 11,7 C 4,0 km/h (1 Bft) 0,00 %
25.09.2015 08:53 11,8 C 85 % 1021,6 hPa 0,0 l/m 0,0 km/h (0 Bft) N 0 0 min 0,000 mm 0,0 UV-I 0 W/m 9,4 C 11,8 C 0,0 km/h (0 Bft) 0,00 %
25.09.2015 08:58 11,9 C 84 % 1021,5 hPa 0,0 l/m 0,0 km/h (0 Bft) N 0 0 min 0,000 mm 0,0 UV-I 0 W/m 9,3 C 11,9 C 0,0 km/h (0 Bft) 0,00 %
25.09.2015 09:03 12,2 C 84 % 1021,5 hPa 0,0 l/m 0,4 km/h (0 Bft) S 185 0 min 0,000 mm 0,0 UV-I 58 W/m 9,6 C 12,2 C 4,0 km/h (1 Bft) 0,00 %
25.09.2015 09:08 12,3 C 84 % 1021,6 hPa 0,0 l/m 0,0 km/h (0 Bft) O-SO 106 0 min 0,000 mm 0,0 UV-I 59 W/m 9,7 C 12,3 C 0,0 km/h (0 Bft) 0,00 %
25.09.2015 09:13 12,3 C 84 % 1021,5 hPa 0,0 l/m 0,0 km/h (0 Bft) O 98 0 min 0,000 mm 0,0 UV-I 67 W/m 9,7 C 12,3 C 0,0 km/h (0 Bft) 0,00 %
25.09.2015 09:24 12,3 C 84 % 1021,4 hPa 0,0 l/m 0,0 km/h (0 Bft) O 98 0 min 0,000 mm 0,0 UV-I 67 W/m 9,7 C 12,3 C 0,0 km/h (0 Bft) 0,00 %
25.09.2015 09:45 13,2 C 80 % 1021,6 hPa 0,0 l/m 2,2 km/h (1 Bft) S 178 0 min 0,000 mm 1,0 UV-I 108 W/m 9,8 C 13,2 C 7,9 km/h (2 Bft) 0,00 %
25.09.2015 09:55 13,2 C 80 % 1021,6 hPa 0,0 l/m 4,3 km/h (1 Bft) S 182 0 min 0,000 mm 1,0 UV-I 122 W/m 9,8 C 13,2 C 7,9 km/h (2 Bft) 0,00 %
25.09.2015 10:00 13,1 C 80 % 1021,6 hPa 0,0 l/m 4,3 km/h (1 Bft) W 270 0 min 0,000 mm 1,0 UV-I 135 W/m 9,7 C 13,1 C 11,9 km/h (2 Bft) 0,00 %
25.09.2015 10:05 13,1 C 80 % 1021,7 hPa 0,0 l/m 8,3 km/h (2 Bft) S 179 0 min 0,000 mm 1,0 UV-I 138 W/m 9,7 C 11,9 C 11,9 km/h (2 Bft) 0,00 %
25.09.2015 10:10 13,2 C 80 % 1021,7 hPa 0,0 l/m 3,2 km/h (1 Bft) S-SW 211 0 min 0,000 mm 1,0 UV-I 135 W/m 9,8 C 13,2 C 7,9 km/h (2 Bft) 0,00 %
25.09.2015 10:15 13,2 C 80 % 1021,8 hPa 0,0 l/m 1,4 km/h (1 Bft) W-SW 252 0 min 0,000 mm 1,0 UV-I 143 W/m 9,8 C 13,2 C 4,0 km/h (1 Bft) 0,00 %
25.09.2015 10:20 13,3 C 79 % 1021,9 hPa 0,0 l/m 6,8 km/h (2 Bft) SW 233 0 min 0,000 mm 1,0 UV-I 144 W/m 9,7 C 13,1 C 11,9 km/h (2 Bft) 0,00 %
25.09.2015 10:25 13,4 C 79 % 1021,8 hPa 0,0 l/m 2,2 km/h (1 Bft) O-SO 122 0 min 0,000 mm 1,0 UV-I 140 W/m 9,8 C 13,4 C 4,0 km/h (1 Bft) 0,00 %
25.09.2015 10:30 13,5 C 79 % 1021,6 hPa 0,0 l/m 2,9 km/h (1 Bft) W-SW 256 0 min 0,000 mm 1,0 UV-I 149 W/m 9,9 C 13,5 C 4,0 km/h (1 Bft) 0,00 %
25.09.2015 10:35 13,5 C 79 % 1021,8 hPa 0,0 l/m 4,7 km/h (1 Bft) SW 218 0 min 0,000 mm 1,0 UV-I 146 W/m 9,9 C 13,5 C 7,9 km/h (2 Bft) 0,00 %
25.09.2015 10:40 13,6 C 79 % 1021,8 hPa 0,0 l/m 3,2 km/h (1 Bft) S-SO 153 0 min 0,000 mm 1,0 UV-I 149 W/m 10,0 C 13,6 C 4,0 km/h (1 Bft) 0,00 %
25.09.2015 10:45 13,7 C 78 % 1021,8 hPa 0,0 l/m 7,9 km/h (2 Bft) SW 230 0 min 0,000 mm 1,0 UV-I 157 W/m 9,9 C 12,8 C 11,9 km/h (2 Bft) 0,00 %
25.09.2015 10:50 13,7 C 77 % 1021,7 hPa 0,0 l/m 5,4 km/h (1 Bft) S 182 0 min 0,000 mm 1,0 UV-I 159 W/m 9,7 C 13,7 C 7,9 km/h (2 Bft) 0,00 %
25.09.2015 10:55 13,7 C 76 % 1021,6 hPa 0,0 l/m 0,4 km/h (0 Bft) SW 226 0 min 0,000 mm 1,0 UV-I 162 W/m 9,5 C 13,7 C 4,0 km/h (1 Bft) 0,00 %
25.09.2015 11:00 13,8 C 76 % 1021,8 hPa 0,0 l/m 2,9 km/h (1 Bft) S 178 0 min 0,000 mm 1,0 UV-I 149 W/m 9,6 C 13,8 C 7,9 km/h (2 Bft) 0,00 %
25.09.2015 11:05 13,9 C 75 % 1021,8 hPa 0,0 l/m 0,0 km/h (0 Bft) O-NO 75 0 min 0,000 mm 1,0 UV-I 144 W/m 9,5 C 13,9 C 0,0 km/h (0 Bft) 0,00 %
25.09.2015 11:10 13,9 C 75 % 1021,6 hPa 0,0 l/m 0,0 km/h (0 Bft) S-SW 203 0 min 0,000 mm 1,0 UV-I 125 W/m 9,5 C 13,9 C 0,0 km/h (0 Bft) 0,00 %
25.09.2015 11:15 13,9 C 75 % 1021,7 hPa 0,0 l/m 2,9 km/h (1 Bft) S-SW 203 0 min 0,000 mm 1,0 UV-I 137 W/m 9,5 C 13,9 C 7,9 km/h (2 Bft) 0,00 %
25.09.2015 11:20 13,9 C 75 % 1021,8 hPa 0,0 l/m 0,0 km/h (0 Bft) SO 135 0 min 0,000 mm 1,0 UV-I 153 W/m 9,5 C 13,9 C 0,0 km/h (0 Bft) 0,00 %
25.09.2015 11:25 13,9 C 75 % 1021,6 hPa 0,0 l/m 3,2 km/h (1 Bft) SW 219 0 min 0,000 mm 1,0 UV-I 158 W/m 9,5 C 13,9 C 7,9 km/h (2 Bft) 0,00 %
25.09.2015 11:30 13,9 C 74 % 1021,7 hPa 0,0 l/m 2,9 km/h (1 Bft) W-SW 256 0 min 0,000 mm 1,0 UV-I 172 W/m 9,3 C 13,9 C 4,0 km/h (1 Bft) 0,00 %
25.09.2015 11:35 13,9 C 74 % 1021,6 hPa 0,0 l/m 4,0 km/h (1 Bft) SW 218 0 min 0,000 mm 1,0 UV-I 188 W/m 9,3 C 13,9 C 7,9 km/h (2 Bft) 0,00 %
25.09.2015 11:40 14,1 C 74 % 1021,6 hPa 0,0 l/m 5,4 km/h (1 Bft) S 182 0 min 0,000 mm 1,0 UV-I 221 W/m 9,5 C 14,1 C 11,9 km/h (2 Bft) 0,00 %
25.09.2015 11:45 14,3 C 73 % 1021,3 hPa 0,0 l/m 0,0 km/h (0 Bft) NO 49 0 min 0,000 mm 1,0 UV-I 209 W/m 9,5 C 14,3 C 0,0 km/h (0 Bft) 0,00 %
25.09.2015 11:50 14,4 C 73 % 1021,3 hPa 0,0 l/m 0,0 km/h (0 Bft) SW 220 0 min 0,000 mm 1,0 UV-I 213 W/m 9,6 C 14,4 C 0,0 km/h (0 Bft) 0,00 %
25.09.2015 11:55 14,5 C 72 % 1021,5 hPa 0,0 l/m 0,0 km/h (0 Bft) O-NO 73 0 min 0,000 mm 1,0 UV-I 217 W/m 9,5 C 14,5 C 0,0 km/h (0 Bft) 0,00 %
25.09.2015 12:00 14,6 C 72 % 1021,5 hPa 0,0 l/m 4,0 km/h (1 Bft) S-SW 203 0 min 0,000 mm 1,0 UV-I 219 W/m 9,6 C 14,6 C 7,9 km/h (2 Bft) 0,00 %
25.09.2015 12:05 14,6 C 72 % 1021,4 hPa 0,0 l/m 4,0 km/h (1 Bft) S-SW 203 0 min 0,000 mm 1,0 UV-I 219 W/m 9,6 C 14,6 C 7,9 km/h (2 Bft) 0,00 %
25.09.2015 12:10 14,6 C 72 % 1021,1 hPa 0,0 l/m 4,0 km/h (1 Bft) S-SW 203 0 min 0,000 mm 1,0 UV-I 219 W/m 9,6 C 14,6 C 7,9 km/h (2 Bft) 0,00 %
25.09.2015 12:15 14,6 C 72 % 1021,3 hPa 0,0 l/m 4,0 km/h (1 Bft) S-SW 203 0 min 0,000 mm 1,0 UV-I 219 W/m 9,6 C 14,6 C 7,9 km/h (2 Bft) 0,00 %
25.09.2015 12:20 14,6 C 72 % 1021,2 hPa 0,0 l/m 4,0 km/h (1 Bft) S-SW 203 0 min 0,000 mm 1,0 UV-I 219 W/m 9,6 C 14,6 C 7,9 km/h (2 Bft) 0,00 %
25.09.2015 12:25 14,6 C 72 % 1021,1 hPa 0,0 l/m 4,0 km/h (1 Bft) S-SW 203 0 min 0,000 mm 1,0 UV-I 219 W/m 9,6 C 14,6 C 7,9 km/h (2 Bft) 0,00 %
25.09.2015 12:30 14,6 C 72 % 1021,1 hPa 0,0 l/m 4,0 km/h (1 Bft) S-SW 203 0 min 0,000 mm 1,0 UV-I 219 W/m 9,6 C 14,6 C 7,9 km/h (2 Bft) 0,00 %
25.09.2015 12:35 16,4 C 68 % 1021,0 hPa 0,0 l/m 0,0 km/h (0 Bft) O 87 5 min 0,000 mm 2,0 UV-I 362 W/m 10,5 C 16,4 C 0,0 km/h (0 Bft) 0,00 %
25.09.2015 12:40 16,4 C 67 % 1021,0 hPa 0,0 l/m 0,0 km/h (0 Bft) O-SO 103 0 min 0,000 mm 2,0 UV-I 342 W/m 10,3 C 16,4 C 0,0 km/h (0 Bft) 0,00 %
25.09.2015 12:45 16,4 C 67 % 1020,8 hPa 0,0 l/m 0,0 km/h (0 Bft) O-SO 103 0 min 0,000 mm 2,0 UV-I 342 W/m 10,3 C 16,4 C 0,0 km/h (0 Bft) 0,00 %
25.09.2015 12:50 16,5 C 66 % 1020,8 hPa 0,0 l/m 0,4 km/h (0 Bft) W-NW 283 0 min 0,000 mm 2,0 UV-I 333 W/m 10,1 C 16,5 C 4,0 km/h (1 Bft) 0,00 %
25.09.2015 12:55 16,5 C 66 % 1020,8 hPa 0,0 l/m 3,2 km/h (1 Bft) S 186 0 min 0,000 mm 2,0 UV-I 330 W/m 10,1 C 16,5 C 7,9 km/h (2 Bft) 0,00 %
25.09.2015 13:00 16,6 C 64 % 1020,7 hPa 0,0 l/m 3,2 km/h (1 Bft) S 179 0 min 0,000 mm 2,0 UV-I 337 W/m 9,8 C 16,6 C 4,0 km/h (1 Bft) 0,00 %
25.09.2015 13:05 16,6 C 66 % 1020,8 hPa 0,0 l/m 2,2 km/h (1 Bft) S-SW 193 0 min 0,000 mm 2,0 UV-I 336 W/m 10,2 C 16,6 C 4,0 km/h (1 Bft) 0,00 %
25.09.2015 13:10 16,6 C 65 % 1020,8 hPa 0,0 l/m 5,4 km/h (1 Bft) S-SW 194 0 min 0,000 mm 2,0 UV-I 327 W/m 10,0 C 16,6 C 11,9 km/h (2 Bft) 0,00 %
25.09.2015 13:15 16,6 C 64 % 1020,3 hPa 0,0 l/m 0,0 km/h (0 Bft) O-SO 108 0 min 0,000 mm 2,0 UV-I 325 W/m 9,8 C 16,6 C 0,0 km/h (0 Bft) 0,00 %
25.09.2015 13:20 16,6 C 65 % 1020,8 hPa 0,0 l/m 1,4 km/h (1 Bft) O-SO 121 0 min 0,000 mm 2,0 UV-I 335 W/m 10,0 C 16,6 C 7,9 km/h (2 Bft) 0,00 %
25.09.2015 13:25 16,6 C 65 % 1020,9 hPa 0,0 l/m 1,4 km/h (1 Bft) N 357 0 min 0,000 mm 2,0 UV-I 346 W/m 10,0 C 16,6 C 4,0 km/h (1 Bft) 0,00 %
25.09.2015 13:30 16,6 C 65 % 1020,7 hPa 0,0 l/m 0,4 km/h (0 Bft) O-NO 63 0 min 0,000 mm 2,0 UV-I 344 W/m 10,0 C 16,6 C 4,0 km/h (1 Bft) 0,00 %
25.09.2015 13:35 16,6 C 66 % 1020,5 hPa 0,0 l/m 4,3 km/h (1 Bft) S 191 0 min 0,000 mm 2,0 UV-I 344 W/m 10,2 C 16,6 C 7,9 km/h (2 Bft) 0,00 %
25.09.2015 13:40 16,6 C 66 % 1020,6 hPa 0,0 l/m 1,8 km/h (1 Bft) S 173 5 min 0,000 mm 2,0 UV-I 361 W/m 10,2 C 16,6 C 4,0 km/h (1 Bft) 0,00 %
25.09.2015 13:45 16,6 C 65 % 1020,3 hPa 0,0 l/m 0,0 km/h (0 Bft) O 81 5 min 0,000 mm 2,0 UV-I 404 W/m 10,0 C 16,6 C 0,0 km/h (0 Bft) 0,00 %
25.09.2015 13:50 16,6 C 65 % 1020,3 hPa 0,0 l/m 5,8 km/h (2 Bft) S-SW 202 5 min 0,000 mm 2,0 UV-I 402 W/m 10,0 C 16,6 C 7,9 km/h (2 Bft) 0,00 %
25.09.2015 13:55 16,7 C 64 % 1020,6 hPa 0,0 l/m 4,0 km/h (1 Bft) SW 227 5 min 0,000 mm 2,0 UV-I 361 W/m 9,9 C 16,7 C 7,9 km/h (2 Bft) 0,00 %
25.09.2015 14:00 17,2 C 64 % 1020,3 hPa 0,0 l/m 0,0 km/h (0 Bft) O-NO 75 5 min 0,000 mm 2,0 UV-I 468 W/m 10,3 C 17,2 C 0,0 km/h (0 Bft) 0,00 %
25.09.2015 14:05 17,2 C 64 % 1020,2 hPa 0,0 l/m 0,0 km/h (0 Bft) O-NO 75 5 min 0,000 mm 2,0 UV-I 468 W/m 10,3 C 17,2 C 0,0 km/h (0 Bft) 0,00 %
25.09.2015 14:10 16,7 C 64 % 1020,1 hPa 0,0 l/m 0,0 km/h (0 Bft) O-NO 75 5 min 0,000 mm 2,0 UV-I 468 W/m 9,9 C 16,7 C 0,0 km/h (0 Bft) 0,00 %
25.09.2015 14:15 16,0 C 64 % 1019,9 hPa 0,0 l/m 0,0 km/h (0 Bft) O-NO 75 0 min 0,000 mm 2,0 UV-I 0 W/m 9,2 C 16,0 C 0,0 km/h (0 Bft) 0,00 %
25.09.2015 14:20 16,1 C 64 % 1019,9 hPa 0,0 l/m 0,0 km/h (0 Bft) O-NO 75 0 min 0,000 mm 2,0 UV-I 0 W/m 9,3 C 16,1 C 0,0 km/h (0 Bft) 0,00 %
25.09.2015 14:25 15,9 C 64 % 1019,9 hPa 0,0 l/m 0,0 km/h (0 Bft) O-NO 75 0 min 0,000 mm 2,0 UV-I 0 W/m 9,1 C 15,9 C 0,0 km/h (0 Bft) 0,00 %
25.09.2015 14:30 15,8 C 64 % 1020,2 hPa 0,0 l/m 0,0 km/h (0 Bft) O-NO 75 0 min 0,000 mm 2,0 UV-I 0 W/m 9,0 C 15,8 C 0,0 km/h (0 Bft) 0,00 %
25.09.2015 14:35 15,7 C 64 % 1020,2 hPa 0,0 l/m 0,0 km/h (0 Bft) O-NO 75 0 min 0,000 mm 2,0 UV-I 0 W/m 8,9 C 15,7 C 0,0 km/h (0 Bft) 0,00 %
25.09.2015 14:40 15,6 C 64 % 1020,2 hPa 0,0 l/m 0,0 km/h (0 Bft) O-NO 75 0 min 0,000 mm 2,0 UV-I 0 W/m 8,8 C 15,6 C 0,0 km/h (0 Bft) 0,00 %
25.09.2015 14:45 15,5 C 64 % 1020,3 hPa 0,0 l/m 0,0 km/h (0 Bft) O-NO 75 0 min 0,000 mm 2,0 UV-I 0 W/m 8,7 C 15,5 C 0,0 km/h (0 Bft) 0,00 %
25.09.2015 14:50 15,4 C 64 % 1020,4 hPa 0,0 l/m 0,0 km/h (0 Bft) O-NO 75 0 min 0,000 mm 2,0 UV-I 0 W/m 8,6 C 15,4 C 0,0 km/h (0 Bft) 0,00 %
25.09.2015 14:55 15,5 C 64 % 1020,4 hPa 0,0 l/m 0,0 km/h (0 Bft) O-NO 75 0 min 0,000 mm 2,0 UV-I 0 W/m 8,7 C 15,5 C 0,0 km/h (0 Bft) 0,00 %
25.09.2015 15:00 15,4 C 64 % 1020,3 hPa 0,0 l/m 0,0 km/h (0 Bft) O-NO 75 0 min 0,000 mm 2,0 UV-I 0 W/m 8,6 C 15,4 C 0,0 km/h (0 Bft) 0,00 %
25.09.2015 15:05 15,3 C 64 % 1020,3 hPa 0,0 l/m 0,0 km/h (0 Bft) O-NO 75 0 min 0,000 mm 2,0 UV-I 0 W/m 8,5 C 15,3 C 0,0 km/h (0 Bft) 0,00 %
25.09.2015 15:10 15,4 C 64 % 1020,3 hPa 0,0 l/m 0,0 km/h (0 Bft) O-NO 75 0 min 0,000 mm 2,0 UV-I 0 W/m 8,6 C 15,4 C 0,0 km/h (0 Bft) 0,00 %
25.09.2015 15:15 15,4 C 64 % 1020,3 hPa 0,0 l/m 0,0 km/h (0 Bft) O-NO 75 0 min 0,000 mm 2,0 UV-I 0 W/m 8,6 C 15,4 C 0,0 km/h (0 Bft) 0,00 %
25.09.2015 15:20 15,3 C 64 % 1020,4 hPa 0,0 l/m 0,0 km/h (0 Bft) O-NO 75 0 min 0,000 mm 2,0 UV-I 0 W/m 8,5 C 15,3 C 0,0 km/h (0 Bft) 0,00 %
25.09.2015 15:25 15,2 C 64 % 1020,4 hPa 0,0 l/m 0,0 km/h (0 Bft) O-NO 75 0 min 0,000 mm 2,0 UV-I 0 W/m 8,4 C 15,2 C 0,0 km/h (0 Bft) 0,00 %
25.09.2015 15:30 15,2 C 64 % 1020,4 hPa 0,0 l/m 0,0 km/h (0 Bft) O-NO 75 0 min 0,000 mm 2,0 UV-I 0 W/m 8,4 C 15,2 C 0,0 km/h (0 Bft) 0,00 %
25.09.2015 15:39 15,7 C 69 % 1020,2 hPa 0,0 l/m 5,8 km/h (2 Bft) S 180 0 min 0,000 mm 0,0 UV-I 45 W/m 10,0 C 15,7 C 7,9 km/h (2 Bft) 0,00 %
25.09.2015 15:44 15,6 C 70 % 1020,3 hPa 0,0 l/m 1,8 km/h (1 Bft) S 188 0 min 0,000 mm 0,0 UV-I 46 W/m 10,1 C 15,6 C 4,0 km/h (1 Bft) 0,00 %
25.09.2015 15:49 15,5 C 70 % 1020,4 hPa 0,0 l/m 4,0 km/h (1 Bft) S 191 0 min 0,000 mm 0,0 UV-I 52 W/m 10,1 C 15,5 C 7,9 km/h (2 Bft) 0,00 %
25.09.2015 15:54 15,5 C 69 % 1020,1 hPa 0,0 l/m 1,4 km/h (1 Bft) S-SO 151 0 min 0,000 mm 0,0 UV-I 48 W/m 9,8 C 15,5 C 4,0 km/h (1 Bft) 0,00 %
25.09.2015 15:59 15,5 C 69 % 1020,2 hPa 0,0 l/m 0,4 km/h (0 Bft) W-SW 244 0 min 0,000 mm 0,0 UV-I 42 W/m 9,8 C 15,5 C 4,0 km/h (1 Bft) 0,00 %
25.09.2015 16:04 15,5 C 69 % 1020,1 hPa 0,0 l/m 1,8 km/h (1 Bft) W-SW 251 0 min 0,000 mm 0,0 UV-I 40 W/m 9,8 C 15,5 C 4,0 km/h (1 Bft) 0,00 %
25.09.2015 16:09 15,5 C 70 % 1020,1 hPa 0,0 l/m 2,9 km/h (1 Bft) W 259 0 min 0,000 mm 0,0 UV-I 38 W/m 10,1 C 15,5 C 4,0 km/h (1 Bft) 0,00 %
25.09.2015 16:14 15,4 C 70 % 1020,1 hPa 0,0 l/m 3,2 km/h (1 Bft) W-SW 252 0 min 0,000 mm 0,0 UV-I 38 W/m 10,0 C 15,4 C 4,0 km/h (1 Bft) 0,00 %
25.09.2015 16:19 15,4 C 70 % 1020,1 hPa 0,0 l/m 0,0 km/h (0 Bft) O 95 0 min 0,000 mm 0,0 UV-I 39 W/m 10,0 C 15,4 C 0,0 km/h (0 Bft) 0,00 %
25.09.2015 16:24 15,4 C 70 % 1020,3 hPa 0,0 l/m 0,0 km/h (0 Bft) O-NO 70 0 min 0,000 mm 0,0 UV-I 36 W/m 10,0 C 15,4 C 0,0 km/h (0 Bft) 0,00 %
25.09.2015 16:29 15,4 C 71 % 1020,2 hPa 0,0 l/m 2,2 km/h (1 Bft) S 181 0 min 0,000 mm 0,0 UV-I 36 W/m 10,2 C 15,4 C 4,0 km/h (1 Bft) 0,00 %
25.09.2015 16:34 15,3 C 70 % 1020,2 hPa 0,0 l/m 0,0 km/h (0 Bft) S 175 0 min 0,000 mm 0,0 UV-I 35 W/m 9,9 C 15,3 C 0,0 km/h (0 Bft) 0,00 %
25.09.2015 16:39 15,3 C 70 % 1020,1 hPa 0,0 l/m 2,9 km/h (1 Bft) S 173 0 min 0,000 mm 0,0 UV-I 29 W/m 9,9 C 15,3 C 7,9 km/h (2 Bft) 0,00 %
25.09.2015 16:44 15,3 C 70 % 1020,2 hPa 0,0 l/m 2,9 km/h (1 Bft) S-SW 207 0 min 0,000 mm 0,0 UV-I 26 W/m 9,9 C 15,3 C 4,0 km/h (1 Bft) 0,00 %
25.09.2015 16:49 15,2 C 69 % 1020,1 hPa 0,0 l/m 2,2 km/h (1 Bft) SW 227 0 min 0,000 mm 0,0 UV-I 23 W/m 9,6 C 15,2 C 4,0 km/h (1 Bft) 0,00 %
25.09.2015 16:54 15,2 C 70 % 1020,2 hPa 0,0 l/m 5,4 km/h (1 Bft) S 180 0 min 0,000 mm 0,0 UV-I 20 W/m 9,8 C 15,2 C 7,9 km/h (2 Bft) 0,00 %
25.09.2015 16:59 15,1 C 69 % 1020,3 hPa 0,0 l/m 1,4 km/h (1 Bft) S 175 0 min 0,000 mm 0,0 UV-I 19 W/m 9,5 C 15,1 C 4,0 km/h (1 Bft) 0,00 %
25.09.2015 17:04 15,1 C 70 % 1020,5 hPa 0,0 l/m 5,8 km/h (2 Bft) S 182 0 min 0,000 mm 0,0 UV-I 19 W/m 9,7 C 15,1 C 7,9 km/h (2 Bft) 0,00 %
25.09.2015 17:09 15,0 C 70 % 1020,3 hPa 0,0 l/m 0,4 km/h (0 Bft) W-SW 241 0 min 0,000 mm 0,0 UV-I 20 W/m 9,6 C 15,0 C 4,0 km/h (1 Bft) 0,00 %
25.09.2015 17:14 15,0 C 69 % 1020,3 hPa 0,0 l/m 9,0 km/h (2 Bft) S-SW 194 0 min 0,000 mm 0,0 UV-I 29 W/m 9,4 C 13,6 C 11,9 km/h (2 Bft) 0,00 %
25.09.2015 17:19 15,0 C 69 % 1020,2 hPa 0,0 l/m 5,4 km/h (1 Bft) S-SW 207 0 min 0,000 mm 0,0 UV-I 29 W/m 9,4 C 15,0 C 7,9 km/h (2 Bft) 0,00 %
25.09.2015 17:24 15,0 C 70 % 1020,1 hPa 0,0 l/m 0,4 km/h (0 Bft) W-SW 251 0 min 0,000 mm 0,0 UV-I 27 W/m 9,6 C 15,0 C 4,0 km/h (1 Bft) 0,00 %
25.09.2015 17:29 14,9 C 71 % 1020,4 hPa 0,0 l/m 4,0 km/h (1 Bft) S-SW 207 0 min 0,000 mm 0,0 UV-I 23 W/m 9,7 C 14,9 C 7,9 km/h (2 Bft) 0,00 %
25.09.2015 17:34 14,9 C 71 % 1020,2 hPa 0,0 l/m 4,7 km/h (1 Bft) S 189 0 min 0,000 mm 0,0 UV-I 20 W/m 9,7 C 14,9 C 7,9 km/h (2 Bft) 0,00 %
25.09.2015 17:39 14,9 C 70 % 1020,2 hPa 0,0 l/m 7,2 km/h (2 Bft) SW 229 0 min 0,000 mm 0,0 UV-I 24 W/m 9,5 C 14,4 C 11,9 km/h (2 Bft) 0,00 %
25.09.2015 17:44 14,9 C 70 % 1020,2 hPa 0,0 l/m 1,8 km/h (1 Bft) SW 214 0 min 0,000 mm 0,0 UV-I 32 W/m 9,5 C 14,9 C 4,0 km/h (1 Bft) 0,00 %
25.09.2015 17:49 14,9 C 71 % 1020,2 hPa 0,0 l/m 1,4 km/h (1 Bft) SO 146 0 min 0,000 mm 0,0 UV-I 35 W/m 9,7 C 14,9 C 4,0 km/h (1 Bft) 0,00 %
25.09.2015 17:54 14,9 C 71 % 1020,2 hPa 0,0 l/m 2,9 km/h (1 Bft) SO 131 0 min 0,000 mm 0,0 UV-I 34 W/m 9,7 C 14,9 C 4,0 km/h (1 Bft) 0,00 %
25.09.2015 17:59 14,9 C 71 % 1020,2 hPa 0,0 l/m 2,9 km/h (1 Bft) SW 219 0 min 0,000 mm 0,0 UV-I 33 W/m 9,7 C 14,9 C 4,0 km/h (1 Bft) 0,00 %
25.09.2015 18:04 14,8 C 72 % 1020,3 hPa 0,0 l/m 1,4 km/h (1 Bft) S-SO 151 0 min 0,000 mm 0,0 UV-I 35 W/m 9,8 C 14,8 C 4,0 km/h (1 Bft) 0,00 %
25.09.2015 18:09 14,8 C 72 % 1020,3 hPa 0,0 l/m 3,2 km/h (1 Bft) S 185 0 min 0,000 mm 0,0 UV-I 40 W/m 9,8 C 14,8 C 4,0 km/h (1 Bft) 0,00 %
25.09.2015 18:14 14,8 C 72 % 1020,2 hPa 0,0 l/m 1,4 km/h (1 Bft) SW 223 0 min 0,000 mm 0,0 UV-I 44 W/m 9,8 C 14,8 C 4,0 km/h (1 Bft) 0,00 %
25.09.2015 18:19 14,8 C 72 % 1020,1 hPa 0,0 l/m 2,2 km/h (1 Bft) SO 138 0 min 0,000 mm 0,0 UV-I 45 W/m 9,8 C 14,8 C 4,0 km/h (1 Bft) 0,00 %
25.09.2015 18:24 14,8 C 71 % 1020,4 hPa 0,0 l/m 1,8 km/h (1 Bft) O-SO 110 0 min 0,000 mm 0,0 UV-I 39 W/m 9,6 C 14,8 C 4,0 km/h (1 Bft) 0,00 %
25.09.2015 18:29 14,9 C 71 % 1020,3 hPa 0,0 l/m 5,4 km/h (1 Bft) S-SW 200 0 min 0,000 mm 0,0 UV-I 28 W/m 9,7 C 14,9 C 7,9 km/h (2 Bft) 0,00 %
25.09.2015 18:34 14,9 C 71 % 1020,4 hPa 0,0 l/m 9,0 km/h (2 Bft) W-SW 255 0 min 0,000 mm 0,0 UV-I 16 W/m 9,7 C 13,5 C 11,9 km/h (2 Bft) 0,00 %
25.09.2015 18:39 14,8 C 71 % 1020,4 hPa 0,0 l/m 9,7 km/h (2 Bft) W-SW 256 0 min 0,000 mm 0,0 UV-I 1 W/m 9,6 C 13,0 C 11,9 km/h (2 Bft) 0,00 %
25.09.2015 18:44 14,8 C 72 % 1020,5 hPa 0,0 l/m 7,2 km/h (2 Bft) SW 215 0 min 0,000 mm 0,0 UV-I 0 W/m 9,8 C 14,3 C 11,9 km/h (2 Bft) 0,00 %
25.09.2015 18:49 14,7 C 72 % 1020,4 hPa 0,0 l/m 0,4 km/h (0 Bft) O-NO 58 0 min 0,000 mm 0,0 UV-I 0 W/m 9,7 C 14,7 C 4,0 km/h (1 Bft) 0,00 %
25.09.2015 18:54 14,6 C 72 % 1020,5 hPa 0,0 l/m 2,2 km/h (1 Bft) S-SW 197 0 min 0,000 mm 0,0 UV-I 0 W/m 9,6 C 14,6 C 4,0 km/h (1 Bft) 0,00 %
25.09.2015 18:59 14,6 C 72 % 1020,4 hPa 0,0 l/m 5,8 km/h (2 Bft) SW 223 0 min 0,000 mm 0,0 UV-I 0 W/m 9,6 C 14,6 C 7,9 km/h (2 Bft) 0,00 %
25.09.2015 19:04 14,6 C 72 % 1020,5 hPa 0,0 l/m 1,4 km/h (1 Bft) S 174 0 min 0,000 mm 0,0 UV-I 0 W/m 9,6 C 14,6 C 4,0 km/h (1 Bft) 0,00 %
25.09.2015 19:09 14,5 C 72 % 1020,7 hPa 0,0 l/m 4,3 km/h (1 Bft) SO 145 0 min 0,000 mm 0,0 UV-I 0 W/m 9,5 C 14,5 C 7,9 km/h (2 Bft) 0,00 %
25.09.2015 19:14 14,5 C 72 % 1021,0 hPa 0,0 l/m 4,0 km/h (1 Bft) SO 131 0 min 0,000 mm 0,0 UV-I 0 W/m 9,5 C 14,5 C 7,9 km/h (2 Bft) 0,00 %
25.09.2015 19:19 14,5 C 72 % 1020,8 hPa 0,0 l/m 3,2 km/h (1 Bft) W-NW 300 0 min 0,000 mm 0,0 UV-I 0 W/m 9,5 C 14,5 C 4,0 km/h (1 Bft) 0,00 %
25.09.2015 19:24 14,4 C 72 % 1020,8 hPa 0,0 l/m 0,0 km/h (0 Bft) W 260 0 min 0,000 mm 0,0 UV-I 0 W/m 9,4 C 14,4 C 0,0 km/h (0 Bft) 0,00 %
25.09.2015 19:29 14,4 C 72 % 1020,9 hPa 0,0 l/m 3,2 km/h (1 Bft) S 181 0 min 0,000 mm 0,0 UV-I 0 W/m 9,4 C 14,4 C 7,9 km/h (2 Bft) 0,00 %
25.09.2015 19:34 14,4 C 72 % 1020,8 hPa 0,0 l/m 1,8 km/h (1 Bft) SW 234 0 min 0,000 mm 0,0 UV-I 0 W/m 9,4 C 14,4 C 4,0 km/h (1 Bft) 0,00 %
25.09.2015 19:39 14,4 C 73 % 1020,7 hPa 0,0 l/m 5,4 km/h (1 Bft) SW 217 0 min 0,000 mm 0,0 UV-I 0 W/m 9,6 C 14,4 C 7,9 km/h (2 Bft) 0,00 %
25.09.2015 19:44 14,4 C 73 % 1020,7 hPa 0,0 l/m 3,2 km/h (1 Bft) SO 146 0 min 0,000 mm 0,0 UV-I 0 W/m 9,6 C 14,4 C 7,9 km/h (2 Bft) 0,00 %
25.09.2015 19:49 14,3 C 72 % 1021,0 hPa 0,0 l/m 7,9 km/h (2 Bft) S 189 0 min 0,000 mm 0,0 UV-I 0 W/m 9,3 C 13,4 C 11,9 km/h (2 Bft) 0,00 %
25.09.2015 19:54 14,3 C 72 % 1020,9 hPa 0,0 l/m 0,7 km/h (0 Bft) O-NO 58 0 min 0,000 mm 0,0 UV-I 0 W/m 9,3 C 14,3 C 4,0 km/h (1 Bft) 0,00 %
25.09.2015 19:59 14,3 C 72 % 1021,1 hPa 0,0 l/m 7,9 km/h (2 Bft) SW 219 0 min 0,000 mm 0,0 UV-I 0 W/m 9,3 C 13,4 C 7,9 km/h (2 Bft) 0,00 %
25.09.2015 20:04 14,3 C 72 % 1020,9 hPa 0,0 l/m 10,8 km/h (2 Bft) S-SW 210 0 min 0,000 mm 0,0 UV-I 0 W/m 9,3 C 12,0 C 11,9 km/h (2 Bft) 0,00 %
25.09.2015 20:09 14,3 C 72 % 1021,2 hPa 0,0 l/m 0,7 km/h (0 Bft) S 180 0 min 0,000 mm 0,0 UV-I 0 W/m 9,3 C 14,3 C 4,0 km/h (1 Bft) 0,00 %
25.09.2015 20:14 14,3 C 72 % 1021,1 hPa 0,0 l/m 5,8 km/h (2 Bft) SW 226 0 min 0,000 mm 0,0 UV-I 0 W/m 9,3 C 14,3 C 7,9 km/h (2 Bft) 0,00 %
25.09.2015 20:19 14,2 C 73 % 1021,3 hPa 0,0 l/m 4,0 km/h (1 Bft) S 186 0 min 0,000 mm 0,0 UV-I 0 W/m 9,4 C 14,2 C 7,9 km/h (2 Bft) 0,00 %
25.09.2015 20:24 14,2 C 73 % 1021,1 hPa 0,0 l/m 5,4 km/h (1 Bft) S 171 0 min 0,000 mm 0,0 UV-I 0 W/m 9,4 C 14,2 C 7,9 km/h (2 Bft) 0,00 %
25.09.2015 20:29 14,1 C 73 % 1021,1 hPa 0,0 l/m 1,8 km/h (1 Bft) O 97 0 min 0,000 mm 0,0 UV-I 0 W/m 9,3 C 14,1 C 4,0 km/h (1 Bft) 0,00 %
25.09.2015 20:34 14,1 C 74 % 1021,2 hPa 0,0 l/m 2,2 km/h (1 Bft) W-SW 255 0 min 0,000 mm 0,0 UV-I 0 W/m 9,5 C 14,1 C 4,0 km/h (1 Bft) 0,00 %
25.09.2015 20:39 14,0 C 74 % 1021,1 hPa 0,0 l/m 0,4 km/h (0 Bft) O-SO 122 0 min 0,000 mm 0,0 UV-I 0 W/m 9,4 C 14,0 C 4,0 km/h (1 Bft) 0,00 %
25.09.2015 20:44 14,0 C 74 % 1021,2 hPa 0,0 l/m 1,4 km/h (1 Bft) SO 129 0 min 0,000 mm 0,0 UV-I 0 W/m 9,4 C 14,0 C 4,0 km/h (1 Bft) 0,00 %
25.09.2015 20:49 14,0 C 74 % 1021,3 hPa 0,0 l/m 1,4 km/h (1 Bft) S 187 0 min 0,000 mm 0,0 UV-I 0 W/m 9,4 C 14,0 C 7,9 km/h (2 Bft) 0,00 %
25.09.2015 20:54 14,0 C 74 % 1021,3 hPa 0,0 l/m 7,9 km/h (2 Bft) S-SW 207 0 min 0,000 mm 0,0 UV-I 0 W/m 9,4 C 13,1 C 11,9 km/h (2 Bft) 0,00 %
25.09.2015 20:59 14,0 C 74 % 1021,2 hPa 0,0 l/m 6,5 km/h (2 Bft) S 173 0 min 0,000 mm 0,0 UV-I 0 W/m 9,4 C 14,0 C 7,9 km/h (2 Bft) 0,00 %
25.09.2015 21:04 14,0 C 73 % 1021,2 hPa 0,0 l/m 5,8 km/h (2 Bft) S 179 0 min 0,000 mm 0,0 UV-I 0 W/m 9,2 C 14,0 C 7,9 km/h (2 Bft) 0,00 %
25.09.2015 21:09 14,0 C 74 % 1021,4 hPa 0,0 l/m 3,2 km/h (1 Bft) O 94 0 min 0,000 mm 0,0 UV-I 0 W/m 9,4 C 14,0 C 4,0 km/h (1 Bft) 0,00 %
25.09.2015 21:14 14,0 C 73 % 1021,4 hPa 0,0 l/m 3,2 km/h (1 Bft) NW 316 0 min 0,000 mm 0,0 UV-I 0 W/m 9,2 C 14,0 C 7,9 km/h (2 Bft) 0,00 %
25.09.2015 21:19 14,0 C 74 % 1021,3 hPa 0,0 l/m 6,5 km/h (2 Bft) S-SW 205 0 min 0,000 mm 0,0 UV-I 0 W/m 9,4 C 14,0 C 11,9 km/h (2 Bft) 0,00 %
25.09.2015 21:24 14,0 C 74 % 1021,1 hPa 0,0 l/m 2,9 km/h (1 Bft) SO 141 0 min 0,000 mm 0,0 UV-I 0 W/m 9,4 C 14,0 C 4,0 km/h (1 Bft) 0,00 %
25.09.2015 21:29 13,9 C 75 % 1021,2 hPa 0,0 l/m 6,5 km/h (2 Bft) SO 125 0 min 0,000 mm 0,0 UV-I 0 W/m 9,5 C 13,9 C 7,9 km/h (2 Bft) 0,00 %
25.09.2015 21:34 13,9 C 75 % 1021,3 hPa 0,0 l/m 2,2 km/h (1 Bft) SW 215 0 min 0,000 mm 0,0 UV-I 0 W/m 9,5 C 13,9 C 4,0 km/h (1 Bft) 0,00 %
25.09.2015 21:39 13,8 C 75 % 1021,4 hPa 0,0 l/m 4,7 km/h (1 Bft) W-SW 255 0 min 0,000 mm 0,0 UV-I 0 W/m 9,4 C 13,8 C 7,9 km/h (2 Bft) 0,00 %
25.09.2015 21:44 13,8 C 75 % 1021,2 hPa 0,0 l/m 1,8 km/h (1 Bft) S-SO 156 0 min 0,000 mm 0,0 UV-I 0 W/m 9,4 C 13,8 C 4,0 km/h (1 Bft) 0,00 %
25.09.2015 21:49 13,8 C 75 % 1021,2 hPa 0,0 l/m 1,4 km/h (1 Bft) S 171 0 min 0,000 mm 0,0 UV-I 0 W/m 9,4 C 13,8 C 4,0 km/h (1 Bft) 0,00 %
25.09.2015 21:54 13,8 C 75 % 1021,3 hPa 0,0 l/m 0,0 km/h (0 Bft) S-SO 147 0 min 0,000 mm 0,0 UV-I 0 W/m 9,4 C 13,8 C 0,0 km/h (0 Bft) 0,00 %
25.09.2015 21:59 13,8 C 74 % 1021,4 hPa 0,0 l/m 4,7 km/h (1 Bft) W-SW 238 0 min 0,000 mm 0,0 UV-I 0 W/m 9,2 C 13,8 C 7,9 km/h (2 Bft) 0,00 %
25.09.2015 22:04 13,9 C 75 % 1021,3 hPa 0,0 l/m 6,8 km/h (2 Bft) S-SW 210 0 min 0,000 mm 0,0 UV-I 0 W/m 9,5 C 13,7 C 11,9 km/h (2 Bft) 0,00 %
25.09.2015 22:09 13,9 C 75 % 1021,2 hPa 0,0 l/m 4,7 km/h (1 Bft) S 179 0 min 0,000 mm 0,0 UV-I 0 W/m 9,5 C 13,9 C 11,9 km/h (2 Bft) 0,00 %
25.09.2015 22:14 13,9 C 75 % 1021,4 hPa 0,0 l/m 5,4 km/h (1 Bft) S 173 0 min 0,000 mm 0,0 UV-I 0 W/m 9,5 C 13,9 C 7,9 km/h (2 Bft) 0,00 %
25.09.2015 22:19 13,8 C 75 % 1021,4 hPa 0,0 l/m 4,7 km/h (1 Bft) SW 227 0 min 0,000 mm 0,0 UV-I 0 W/m 9,4 C 13,8 C 7,9 km/h (2 Bft) 0,00 %
25.09.2015 22:24 13,8 C 75 % 1021,3 hPa 0,0 l/m 7,9 km/h (2 Bft) S 179 0 min 0,000 mm 0,0 UV-I 0 W/m 9,4 C 12,9 C 11,9 km/h (2 Bft) 0,00 %
25.09.2015 22:29 13,8 C 76 % 1021,2 hPa 0,0 l/m 2,2 km/h (1 Bft) S 190 0 min 0,000 mm 0,0 UV-I 0 W/m 9,6 C 13,8 C 4,0 km/h (1 Bft) 0,00 %
25.09.2015 22:34 13,8 C 76 % 1021,3 hPa 0,0 l/m 5,8 km/h (2 Bft) S 189 0 min 0,000 mm 0,0 UV-I 0 W/m 9,6 C 13,8 C 7,9 km/h (2 Bft) 0,00 %
25.09.2015 22:39 13,8 C 76 % 1021,5 hPa 0,0 l/m 6,8 km/h (2 Bft) S 181 0 min 0,000 mm 0,0 UV-I 0 W/m 9,6 C 13,6 C 7,9 km/h (2 Bft) 0,00 %
25.09.2015 22:44 13,8 C 75 % 1021,2 hPa 0,0 l/m 11,9 km/h (2 Bft) S-SW 213 0 min 0,000 mm 0,0 UV-I 0 W/m 9,4 C 10,9 C 15,8 km/h (3 Bft) 0,00 %
25.09.2015 22:49 13,8 C 75 % 1021,1 hPa 0,0 l/m 2,2 km/h (1 Bft) S 189 0 min 0,000 mm 0,0 UV-I 0 W/m 9,4 C 13,8 C 4,0 km/h (1 Bft) 0,00 %
25.09.2015 22:54 13,8 C 75 % 1021,4 hPa 0,0 l/m 0,7 km/h (0 Bft) S 176 0 min 0,000 mm 0,0 UV-I 0 W/m 9,4 C 13,8 C 4,0 km/h (1 Bft) 0,00 %
25.09.2015 22:59 13,8 C 75 % 1021,6 hPa 0,0 l/m 4,0 km/h (1 Bft) S-SW 204 0 min 0,000 mm 0,0 UV-I 0 W/m 9,4 C 13,8 C 7,9 km/h (2 Bft) 0,00 %
25.09.2015 23:04 13,8 C 75 % 1021,4 hPa 0,0 l/m 0,0 km/h (0 Bft) NO 51 0 min 0,000 mm 0,0 UV-I 0 W/m 9,4 C 13,8 C 0,0 km/h (0 Bft) 0,00 %
25.09.2015 23:09 13,7 C 76 % 1021,5 hPa 0,0 l/m 2,9 km/h (1 Bft) W-SW 256 0 min 0,000 mm 0,0 UV-I 0 W/m 9,5 C 13,7 C 4,0 km/h (1 Bft) 0,00 %
25.09.2015 23:14 13,7 C 76 % 1021,6 hPa 0,0 l/m 0,0 km/h (0 Bft) O 94 0 min 0,000 mm 0,0 UV-I 0 W/m 9,5 C 13,7 C 0,0 km/h (0 Bft) 0,00 %
25.09.2015 23:19 13,7 C 76 % 1021,3 hPa 0,0 l/m 0,7 km/h (0 Bft) SW 227 0 min 0,000 mm 0,0 UV-I 0 W/m 9,5 C 13,7 C 4,0 km/h (1 Bft) 0,00 %
25.09.2015 23:24 13,7 C 75 % 1021,4 hPa 0,0 l/m 2,2 km/h (1 Bft) SO 140 0 min 0,000 mm 0,0 UV-I 0 W/m 9,3 C 13,7 C 7,9 km/h (2 Bft) 0,00 %
25.09.2015 23:29 13,7 C 76 % 1021,4 hPa 0,0 l/m 8,3 km/h (2 Bft) SW 223 0 min 0,000 mm 0,0 UV-I 0 W/m 9,5 C 12,6 C 11,9 km/h (2 Bft) 0,00 %
25.09.2015 23:34 13,7 C 76 % 1021,3 hPa 0,0 l/m 5,8 km/h (2 Bft) S-SW 213 0 min 0,000 mm 0,0 UV-I 0 W/m 9,5 C 13,7 C 7,9 km/h (2 Bft) 0,00 %
25.09.2015 23:39 13,7 C 76 % 1021,4 hPa 0,0 l/m 0,7 km/h (0 Bft) S 187 0 min 0,000 mm 0,0 UV-I 0 W/m 9,5 C 13,7 C 4,0 km/h (1 Bft) 0,00 %
25.09.2015 23:44 13,7 C 76 % 1021,6 hPa 0,0 l/m 2,9 km/h (1 Bft) S 182 0 min 0,000 mm 0,0 UV-I 0 W/m 9,5 C 13,7 C 4,0 km/h (1 Bft) 0,00 %
25.09.2015 23:49 13,7 C 76 % 1021,6 hPa 0,0 l/m 1,4 km/h (1 Bft) S 174 0 min 0,000 mm 0,0 UV-I 0 W/m 9,5 C 13,7 C 4,0 km/h (1 Bft) 0,00 %
25.09.2015 23:54 13,7 C 76 % 1021,4 hPa 0,0 l/m 0,7 km/h (0 Bft) S-SW 205 0 min 0,000 mm 0,0 UV-I 0 W/m 9,5 C 13,7 C 4,0 km/h (1 Bft) 0,00 %
25.09.2015 23:59 13,7 C 76 % 1021,4 hPa 0,0 l/m 1,8 km/h (1 Bft) W-SW 253 0 min 0,000 mm 0,0 UV-I 0 W/m 9,5 C 13,7 C 4,0 km/h (1 Bft) 0,00 %
_ Min-Zeit 06:38 13:00 14:15 - 00:08 - - - - - - 15:25 03:48 00:08 00:03
Minimum _ 11,3 C 64 % 1019,9 hPa - 0,0 km/h (0 Bft) - - - - - - 8,4 C 9,8 C 0,0 km/h (0 Bft) 0,00 %
_ Max-Zeit 14:00 00:43 07:38 00:03 22:44 - - 12:35 00:03 12:35 14:00 12:35 14:00 22:44 00:03
Maximum _ 17,2 C 88 % 1021,9 hPa 0,0 l/m 11,9 km/h
S-SW (2 Bft)
- - 5 min 0,000 mm 2,0 UV-I 468 W/m 10,5 C 17,2 C 15,8 km/h
S-SW (3 Bft)
0,00 %
Durchschnitt _ 13,4 C 78 % 1021,1 hPa #0,0 l/m 2,2 km/h (1 Bft) S - #40 min. #0,000 mm 1,5 UV-I 130 W/m 9,5 C 13,4 C 4,2 km/h (1 Bft) 0,00 %